Teterboro, NJ

11:25 PM EDT on August 23, 2017 (GMT -0400)
Teterboro

Weather History for KTEB - March, 2014

Change the Weather History Date:

Thursday, March 6, 2014

  Actual Average Record
Temperature  
Mean Temperature 23 °F -  
Max Temperature 30 °F 43 °F 63 °F (2004)
Min Temperature 16 °F 28 °F 10 °F (2007)
Degree Days  
Heating Degree Days 42    
Moisture  
Dew Point 3 °F    
Average Humidity 41    
Maximum Humidity 52    
Minimum Humidity 29    
Precipitation  
Precipitation 0.00 in - - ()
Snow  
Snow 0.00 in - - ()
Snow Depth 2.00 in    
Sea Level Pressure  
Sea Level Pressure 30.56 in    
Wind  
Wind Speed 8 mph (NE)    
Max Wind Speed 14 mph    
Max Gust Speed 22 mph    
Visibility 10 miles    
Events      
Averages and records for this station are not official NWS values.
T = Trace of Precipitation, MM = Missing Value Source: NWS Daily Summary

Daily Weather History Graph

Daily Weather History Graph

Search for Another Location

Airport or City:

Trip Planner

Search our weather history database for the weather conditions in past years. The results will help you decide how hot, cold, wet, or windy it might be!

Date:

Astronomy

Mar. 06, 2014 Rise Set
Actual Time 6:22 AM EST 5:53 PM EST
Civil Twilight 5:55 AM EST 6:20 PM EST
Nautical Twilight 5:23 AM EST 6:52 PM EST
Astronomical Twilight 4:51 AM EST 7:24 PM EST
Moon 9:26 AM EST (3/6) 11:59 PM EST (3/6)
Length of Visible Light 12h 25m
Length of Day
11h 30m
Waxing Crescent, 32% of the Moon is Illuminated
Mar 6
Waxing Crescent
Mar 8
First Quarter
Mar 16
Full
Mar 23
Last Quarter
Mar 30
New

Hourly Weather History & Observations

Time (EST) Temp. Windchill Dew Point Humidity Pressure Visibility Wind Dir Wind Speed Gust Speed Precip Events Conditions
12:51 AM 23.0 °F 10.6 °F 6.1 °F 48% 30.49 in 10.0 mi North 13.8 mph 21.9 mph N/A   Clear
1:51 AM 21.9 °F 11.7 °F 3.9 °F 46% 30.50 in 10.0 mi NNE 9.2 mph - N/A   Clear
2:51 AM 19.9 °F 7.9 °F 1.9 °F 46% 30.52 in 10.0 mi NNE 11.5 mph - N/A   Clear
3:51 AM 19.0 °F 8.2 °F 1.0 °F 46% 30.53 in 10.0 mi NNE 9.2 mph - N/A   Clear
4:51 AM 17.1 °F 6.6 °F 1.0 °F 50% 30.56 in 10.0 mi North 8.1 mph - N/A   Clear
5:51 AM 17.1 °F 10.0 °F 1.0 °F 50% 30.58 in 10.0 mi North 4.6 mph - N/A   Clear
6:51 AM 16.0 °F 5.3 °F 1.0 °F 52% 30.59 in 10.0 mi NNE 8.1 mph 17.3 mph N/A   Clear
7:51 AM 17.1 °F 3.6 °F -0.0 °F 47% 30.61 in 10.0 mi NNE 12.7 mph 18.4 mph N/A   Clear
8:51 AM 19.0 °F 7.5 °F -0.9 °F 42% 30.63 in 10.0 mi NNE 10.4 mph - N/A   Clear
9:51 AM 19.9 °F 8.6 °F -0.9 °F 40% 30.65 in 10.0 mi North 10.4 mph - N/A   Clear
10:51 AM 23.0 °F 13.1 °F 1.0 °F 39% 30.64 in 10.0 mi North 9.2 mph - N/A   Clear
11:51 AM 25.0 °F 17.1 °F -0.0 °F 34% 30.61 in 10.0 mi Variable 6.9 mph - N/A   Clear
12:51 PM 27.0 °F - -0.0 °F 31% 30.59 in 10.0 mi Calm Calm - N/A   Clear
1:51 PM 28.9 °F - 1.9 °F 32% 30.56 in 10.0 mi Calm Calm - N/A   Clear
2:51 PM 30.0 °F 26.5 °F 3.0 °F 32% 30.54 in 10.0 mi ENE 3.5 mph - N/A   Clear
3:51 PM 30.0 °F 25.2 °F 1.0 °F 29% 30.53 in 10.0 mi ESE 4.6 mph - N/A   Clear
4:51 PM 30.0 °F 25.2 °F 1.0 °F 29% 30.54 in 10.0 mi East 4.6 mph - N/A   Clear
5:51 PM 30.0 °F 24.1 °F 1.0 °F 29% 30.54 in 10.0 mi East 5.8 mph - N/A   Clear
6:51 PM 28.0 °F 24.2 °F 6.1 °F 39% 30.55 in 10.0 mi South 3.5 mph - N/A   Clear
7:51 PM 28.9 °F - 3.0 °F 33% 30.54 in 10.0 mi Calm Calm - N/A   Clear
8:51 PM 28.0 °F - 7.0 °F 41% 30.53 in 10.0 mi Calm Calm - N/A   Clear
9:51 PM 28.0 °F 22.8 °F 10.9 °F 49% 30.52 in 10.0 mi East 4.6 mph - N/A   Clear
10:51 PM 28.0 °F 22.8 °F 10.9 °F 49% 30.51 in 10.0 mi East 4.6 mph - N/A   Clear
11:51 PM 28.0 °F 24.2 °F 9.0 °F 45% 30.49 in 10.0 mi SE 3.5 mph - N/A   Clear